FLOCK 4A-11 (44096 NORAD) Tracking and Keplerian Element Data

This shows tracking and keplerian element data for the satellite.

Feedback or suggestion? Click here.




ElementValue
Catalog44096
NameFLOCK 4A-11
Epoch Orbit430
Epoch Day119.67544895
Epoch Year2019
RAAN180.0093
Inclination97.4616
Eccentricity0.0011397
Argument of Perigee184.9131
Mean Anonmoly175.1995
Mean Motion15.21969622
Decay Rate1.108E-05
L11 44096U 19018U 19119.67544895 .00001108 00000-0 51596-4 0 9991
L22 44096 97.4616 180.0093 0011397 184.9131 175.1995 15.21969622 4304

Live tracking and technical data element details for FLOCK 4A-11 (NORAD 44096). FLOCK 4A-11 can be tracked NOW for your location showing map with azimuth and elevation plus other details from your city location.

Track the satellite on the map from your city or location and see movement details for azimuth, elevation, latitude, longitude, range, height, and movement on the map or in text.







IsCatalogInMostPopularTable: catalog: 44096, numindb: 38
Update: records affected: 1



GetName: 44096 FLOCK 4A-11

Hit Count: updated at: Wed, 17 Jul 2019 09:02:47 GMT